SL-14 DEB, 45318

Orbit data source: Space-Track

SL-14 DEB, 45318 is space debris in LEO originally from a launch on Thu, 15 Aug 1991 UTC launched from the Plesetsk Missile And Space Complex (PKMTR). Debris objects in space refer to the collection of defunct objects orbiting the Earth. Examples of debris include non-operational satellites, rocket bodies, and fragments generated from explosions, collisions, or faulty payload assembly.

Loading next visibility...
Identifier
45318, 1991-056BG
Orbit
LEO
Country
Flag of CISCIS
Related business
Manufacturer
Unknown
Mission
Spacecraft
Bus & Motor
Unknown
Mass
Unknown
Launch date (UTC)
1991-08-15 (34 years ago)
Launch vehicle
Unknown
Launch site
Plesetsk Missile And Space Complex (PKMTR)
Object type
Payload
Rocket body
Debris
Shape & HBR
Unknown shape, 0.2 m
Radar Cross Section
Small (<0.1 m²)

Expand to show TLE details & history
Last TLE update: 9 hours ago

TLE from 9 hours ago
0 SL-14 DEB
1 45318U 91056BG  26036.52997234  .00000398  00000-0  96480-3 0  9990
2 45318  82.5663 230.3913 0009631  41.0226 319.1621 13.19654591286203
Epoch: 2026-02-05T12:43Z
TLE epoch observation values (Epoch: 2026-02-05T12:43:09.610Z)
Latitude
0.00004°
Longitude
-96.07962°
Altitude
1,183.342 km
Speed
7.265 km/s
True Right ascension
15h 21m 33s
True Declination
0° 00' 00"
Sunlit
Object was in daylight at epoch
Visualization orbit readout
Latitude
Unknown
Longitude
Unknown
Altitude
Unknown
Speed
Unknown
Apparent Right ascension
Unknown
Apparent Declination
Unknown
Sunlit
N/A
Visualization observer readout
Local Sidereal Time
23:37:59
Azimuth
Unknown
Elevation
Unknown
Doppler factor
Unknown
Orbital elements
Apogee altitude
1,190.562 km
Perigee altitude
1,175.998 km
Semi-major axis
7,561.417 km
Eccentricity
0.00096
Inclination
82.5663°
RAAN
230.3913°
Arg. of periapsis
41.0226°
True anomaly
319.08987°
Mean anomaly
319.1621°
Eccentric anomaly
319.12599°
Mean motion
3.30095 °/min
Orbital period
109.06 mins
BSTAR
0.0009648
Loading maneuver chart data...
Computing Atmospheric mass density...
Loading historical data...
Loading historical data...
Loading historical data...
Loading historical data...
Loading historical data...
Loading historical data...
Loading historical data...

Documentation

Showing up to 5 results
|